sat.trackr.live / text

‹ back to catalog

JCSAT-12 (JCSAT-RA)

NORAD 35755 · 2009-044A

PAYLOAD ACTIVE UNKNOWN

§ Identity

Operator
Country
JPN
Launch date
2009-08-21
Launch site
FRGUI
Launch vehicle
Mass (kg)
RCS (m²)
50.12

Purposes: comms

External: N2YO · Heavens-Above · Gunter

§ Orbital elements

Epoch: 2026-09-08T22:49:38.813088Z

Period
1,436.10 min
Inclination
0.0608°
Eccentricity
0.0001701
Mean motion
1.00271818 rev/d
Perigee alt
35,779.4 km
Apogee alt
35,793.8 km
Semi-major
42,164.7 km
B*
0.0000e+0
RAAN
276.4264°
Arg perigee
304.5662°
Mean anomaly
241.4812°
Rev number
6,245

§ Raw data

JCSAT-12 (JCSAT-RA)1 35755U 09044A   26251.95114367 -.00000349  00000+0  00000+0 0  99992 35755   0.0608 276.4264 0001701 304.5662 241.4812  1.00271818 62454

JSON: /api/v1/satellites/35755 · /tle

For live sub-satellite position, see the globe view (requires WebGL).

§ Visibility from observer

Set your observer location to see the next 7 days of passes ≥ 10°. The values pass through the URL so the page stays shareable.

No JS? Fill the form by hand. The geolocation button needs JavaScript.